sat.trackr.live / text

‹ back to catalog

STARLINK-34675

NORAD 64809 · 2025-150V

PAYLOAD ACTIVE UNKNOWN

§ Identity

Operator
Country
US
Launch date
2025-07-16
Launch site
AFWTR
Launch vehicle
Mass (kg)
RCS (m²)

Purposes: comms

External: N2YO · Heavens-Above · Gunter

§ Orbital elements

Epoch: 2026-09-20T14:31:39.550368Z

Period
96.11 min
Inclination
70.0031°
Eccentricity
0.0003162
Mean motion
14.98332533 rev/d
Perigee alt
569.9 km
Apogee alt
574.2 km
Semi-major
6,950.2 km
B*
1.0609e-4
RAAN
2.9928°
Arg perigee
268.2877°
Mean anomaly
91.7920°
Rev number
6,571

§ Raw data

STARLINK-346751 64809U 25150V   26263.60531887  .00001173  00000+0  10609-3 0  99972 64809  70.0031   2.9928 0003162 268.2877  91.7920 14.98332533 65710

JSON: /api/v1/satellites/64809 · /tle

For live sub-satellite position, see the globe view (requires WebGL).

§ Visibility from observer

Set your observer location to see the next 7 days of passes ≥ 10°. The values pass through the URL so the page stays shareable.

No JS? Fill the form by hand. The geolocation button needs JavaScript.